SVR267 UNOO-UNKL

Flight info

Callsign SVR267
Flight time N/A
Altitude 35000
Route RUMOD5D RUMOD A844 BIKMI R234 BESUP B234 SZ G828 NN A300 ROTLI/K0739F270 A300 RANET RANET2Z
Aircraft A320/M-SDE3FGHIRWY/LB1

Departure

Time 2026-05-05 15:09
Airport Omsk Central Airport (UNOO)

Arrival

Time N/A
Airport Krasnoyarsk International Airport (UNKL)
Time Latitude Longitude Altitude Speed Heading
2026-05-05 14:32 54.95961 73.31448 311 ft 0 kts 167°
2026-05-05 14:47 54.95949 73.31452 310 ft 3 kts 167°
2026-05-05 14:47 54.95942 73.31463 311 ft 0 kts 130°
2026-05-05 14:48 54.95942 73.31474 311 ft 1 kts 102°
2026-05-05 14:48 54.95943 73.31494 311 ft 2 kts 81°
2026-05-05 14:48 54.95950 73.31512 311 ft 4 kts 57°
2026-05-05 14:48 54.95982 73.31576 310 ft 8 kts 47°
2026-05-05 14:49 54.96018 73.31641 310 ft 7 kts 46°
2026-05-05 14:49 54.96049 73.31696 310 ft 6 kts 46°
2026-05-05 14:49 54.96077 73.31747 309 ft 7 kts 46°
2026-05-05 14:49 54.96127 73.31837 309 ft 13 kts 46°
2026-05-05 14:50 54.96184 73.31939 310 ft 11 kts 46°
2026-05-05 14:50 54.96234 73.32030 307 ft 10 kts 46°
2026-05-05 14:50 54.96280 73.32101 307 ft 8 kts 38°
2026-05-05 14:50 54.96324 73.32158 308 ft 7 kts 36°
2026-05-05 14:51 54.96360 73.32205 308 ft 6 kts 37°
2026-05-05 14:51 54.96393 73.32235 307 ft 5 kts 18°
2026-05-05 14:51 54.96420 73.32236 306 ft 3 kts 358°
2026-05-05 14:51 54.96441 73.32242 306 ft 6 kts 16°
2026-05-05 14:52 54.96476 73.32332 305 ft 10 kts 75°
2026-05-05 14:52 54.96491 73.32440 307 ft 9 kts 77°
2026-05-05 14:52 54.96503 73.32536 305 ft 8 kts 77°
2026-05-05 14:52 54.96515 73.32618 305 ft 6 kts 76°
2026-05-05 14:53 54.96524 73.32687 305 ft 5 kts 76°
2026-05-05 14:53 54.96537 73.32779 305 ft 12 kts 76°
2026-05-05 14:53 54.96554 73.32918 305 ft 7 kts 76°
2026-05-05 14:53 54.96559 73.32958 304 ft 5 kts 75°
2026-05-05 14:54 54.96568 73.33005 304 ft 4 kts 64°
2026-05-05 14:54 54.96585 73.33034 304 ft 3 kts 37°
2026-05-05 14:54 54.96602 73.33046 303 ft 2 kts 17°
2026-05-05 14:54 54.96623 73.33045 306 ft 5 kts 353°
2026-05-05 14:55 54.96665 73.33030 303 ft 3 kts 347°
2026-05-05 14:55 54.96678 73.33025 305 ft 2 kts 347°
2026-05-05 14:55 54.96679 73.33024 305 ft 0 kts 347°
2026-05-05 15:05 54.96713 73.33010 303 ft 9 kts 346°
2026-05-05 15:05 54.96788 73.32980 304 ft 11 kts 347°
2026-05-05 15:05 54.96861 73.32950 305 ft 10 kts 347°
2026-05-05 15:06 54.96927 73.32923 301 ft 10 kts 347°
2026-05-05 15:06 54.96958 73.32899 303 ft 1 kts 292°
2026-05-05 15:06 54.96959 73.32885 302 ft 2 kts 281°
2026-05-05 15:06 54.96957 73.32850 310 ft 3 kts 262°
2026-05-05 15:07 54.96954 73.32825 293 ft 0 kts 257°
2026-05-05 15:08 54.96930 73.32654 305 ft 50 kts 256°
2026-05-05 15:08 54.96794 73.31629 306 ft 121 kts 257°
2026-05-05 15:08 54.96550 73.29904 371 ft 168 kts 256°
2026-05-05 15:09 54.96295 73.27920 1107 ft 164 kts 255°
2026-05-05 15:09 54.96063 73.25994 1925 ft 158 kts 256°
2026-05-05 15:09 54.95837 73.24074 2345 ft 171 kts 256°
2026-05-05 15:09 54.95553 73.21929 2534 ft 197 kts 255°
2026-05-05 15:10 54.95200 73.19447 2847 ft 222 kts 256°
2026-05-05 15:10 54.94824 73.16815 3648 ft 223 kts 255°
2026-05-05 15:10 54.94449 73.14205 4593 ft 221 kts 253°
2026-05-05 15:10 54.94090 73.11611 5491 ft 220 kts 253°
2026-05-05 15:11 54.93737 73.09012 6324 ft 221 kts 252°
2026-05-05 15:11 54.93385 73.06403 7095 ft 223 kts 252°
2026-05-05 15:11 54.93144 73.03705 7708 ft 238 kts 269°
2026-05-05 15:11 54.93825 73.00927 8303 ft 270 kts 302°
2026-05-05 15:12 54.95476 72.99080 8993 ft 301 kts 335°
2026-05-05 15:12 54.97644 72.98904 9712 ft 325 kts
2026-05-05 15:12 54.99861 73.00084 10176 ft 346 kts 18°
2026-05-05 15:12 55.02113 73.01965 10327 ft 372 kts 24°
2026-05-05 15:13 55.04437 73.04159 10669 ft 386 kts 25°
2026-05-05 15:13 55.06745 73.06618 11276 ft 394 kts 35°
2026-05-05 15:13 55.08773 73.09907 11939 ft 400 kts 47°
2026-05-05 15:13 55.10440 73.13820 12610 ft 404 kts 59°
2026-05-05 15:14 55.11605 73.18289 13257 ft 406 kts 75°
2026-05-05 15:14 55.12231 73.23110 13857 ft 409 kts 81°
2026-05-05 15:14 55.12762 73.27984 14417 ft 412 kts 82°
2026-05-05 15:14 55.13273 73.32929 14971 ft 415 kts 82°
2026-05-05 15:15 55.13778 73.37903 15534 ft 418 kts 82°
2026-05-05 15:15 55.14490 73.42861 16085 ft 423 kts 72°
2026-05-05 15:15 55.15700 73.47575 16620 ft 428 kts 60°
2026-05-05 15:15 55.17389 73.51876 17150 ft 430 kts 50°
2026-05-05 15:16 55.19274 73.55976 17693 ft 434 kts 50°
2026-05-05 15:16 55.21168 73.60111 18246 ft 438 kts 50°
2026-05-05 15:16 55.23075 73.64306 18663 ft 443 kts 50°
2026-05-05 15:16 55.24992 73.68552 19103 ft 446 kts 50°
2026-05-05 15:17 55.26921 73.72847 19573 ft 450 kts 50°
2026-05-05 15:17 55.28864 73.77176 20033 ft 453 kts 50°
2026-05-05 15:17 55.30956 73.81309 20504 ft 454 kts 43°
2026-05-05 15:17 55.32955 73.85622 20993 ft 459 kts 57°
2026-05-05 15:18 55.34372 73.90674 21453 ft 463 kts 71°
2026-05-05 15:18 55.35202 73.96141 21887 ft 465 kts 82°
2026-05-05 15:18 55.35488 74.01789 22311 ft 465 kts 93°
2026-05-05 15:18 55.35226 74.07435 22718 ft 463 kts 104°
2026-05-05 15:19 55.34666 74.13026 23117 ft 466 kts 104°
2026-05-05 15:19 55.34089 74.18646 23500 ft 470 kts 104°
2026-05-05 15:19 55.33503 74.24217 23846 ft 472 kts 105°
2026-05-05 15:19 55.32889 74.29966 24191 ft 474 kts 105°
2026-05-05 15:20 55.32283 74.35608 24522 ft 476 kts 104°
2026-05-05 15:20 55.31661 74.41400 24858 ft 478 kts 104°
2026-05-05 15:20 55.31047 74.47121 25219 ft 478 kts 104°
2026-05-05 15:20 55.30427 74.52876 25566 ft 479 kts 104°
2026-05-05 15:21 55.29805 74.58627 25900 ft 481 kts 104°
2026-05-05 15:21 55.29178 74.64402 26211 ft 483 kts 104°
2026-05-05 15:21 55.28543 74.70197 26527 ft 484 kts 104°
2026-05-05 15:21 55.27903 74.76014 26843 ft 486 kts 104°
2026-05-05 15:22 55.27269 74.81762 27134 ft 488 kts 104°
2026-05-05 15:22 55.26621 74.87623 27421 ft 490 kts 104°
2026-05-05 15:22 55.25967 74.93491 27708 ft 492 kts 104°
2026-05-05 15:22 55.25305 74.99388 27984 ft 494 kts 104°
2026-05-05 15:23 55.24638 75.05297 28262 ft 496 kts 104°
2026-05-05 15:23 55.23967 75.11226 28532 ft 497 kts 104°
2026-05-05 15:23 55.23289 75.17187 28795 ft 499 kts 104°
2026-05-05 15:23 55.22608 75.23158 29058 ft 501 kts 104°
2026-05-05 15:24 55.21926 75.29114 29299 ft 502 kts 104°
2026-05-05 15:24 55.21238 75.35117 29544 ft 504 kts 104°
2026-05-05 15:24 55.20544 75.41140 29777 ft 505 kts 104°
2026-05-05 15:24 55.19845 75.47172 29992 ft 507 kts 104°
2026-05-05 15:25 55.19142 75.53221 30180 ft 508 kts 104°
2026-05-05 15:25 55.18433 75.59284 30346 ft 509 kts 104°
2026-05-05 15:25 55.17718 75.65341 30612 ft 508 kts 104°
2026-05-05 15:25 55.17001 75.71380 30873 ft 507 kts 104°
2026-05-05 15:26 55.16283 75.77411 31126 ft 506 kts 104°
2026-05-05 15:26 55.15565 75.83433 31382 ft 506 kts 104°
2026-05-05 15:26 55.14845 75.89450 31639 ft 505 kts 104°
2026-05-05 15:26 55.14123 75.95454 31895 ft 505 kts 105°
2026-05-05 15:27 55.13400 76.01455 32149 ft 504 kts 105°
2026-05-05 15:27 55.12674 76.07446 32404 ft 504 kts 105°
2026-05-05 15:27 55.11946 76.13428 32664 ft 503 kts 105°
2026-05-05 15:27 55.11215 76.19398 32893 ft 503 kts 105°
2026-05-05 15:28 55.10479 76.25376 33094 ft 504 kts 105°
2026-05-05 15:28 55.09742 76.31354 33322 ft 504 kts 105°
2026-05-05 15:28 55.09002 76.37336 33560 ft 503 kts 105°
2026-05-05 15:28 55.08260 76.43299 33809 ft 503 kts 105°
2026-05-05 15:29 55.07514 76.49256 34020 ft 502 kts 105°
2026-05-05 15:29 55.06776 76.55134 34239 ft 502 kts 105°
2026-05-05 15:29 55.06026 76.61079 34454 ft 501 kts 105°
2026-05-05 15:29 55.05276 76.67005 34632 ft 501 kts 105°
2026-05-05 15:30 55.04522 76.72927 34831 ft 499 kts 105°
2026-05-05 15:30 55.03026 76.84683 34887 ft 496 kts 104°
2026-05-05 15:31 55.01514 76.96420 34889 ft 496 kts 105°
2026-05-05 15:31 54.99986 77.08147 34893 ft 496 kts 105°
2026-05-05 15:32 54.98450 77.19869 34892 ft 496 kts 105°
2026-05-05 15:32 54.96908 77.31577 34896 ft 496 kts 105°
2026-05-05 15:33 54.95343 77.43274 34900 ft 496 kts 105°
2026-05-05 15:33 54.93764 77.54968 34899 ft 497 kts 104°
2026-05-05 15:34 54.93100 77.66904 34894 ft 498 kts 86°
2026-05-05 15:34 54.93867 77.78842 34898 ft 498 kts 82°
2026-05-05 15:35 54.94688 77.90810 34895 ft 498 kts 83°
2026-05-05 15:35 54.95497 78.02791 34907 ft 499 kts 82°
2026-05-05 15:36 54.96293 78.14792 34904 ft 500 kts 83°
2026-05-05 15:36 54.97076 78.26808 34919 ft 500 kts 83°
2026-05-05 15:37 54.97864 78.38828 34927 ft 500 kts 83°
2026-05-05 15:37 54.98638 78.50854 34926 ft 500 kts 83°
2026-05-05 15:38 54.99396 78.62878 34931 ft 500 kts 83°
2026-05-05 15:38 55.00011 78.72871 34910 ft 499 kts 83°
2026-05-05 15:39 55.00736 78.84887 34930 ft 498 kts 83°
2026-05-05 15:39 55.01459 78.96874 34936 ft 497 kts 83°
2026-05-05 15:40 55.02174 79.08869 34944 ft 498 kts 83°
2026-05-05 15:40 55.02868 79.20869 34936 ft 498 kts 83°
2026-05-05 15:41 55.03549 79.32890 34939 ft 498 kts 83°
2026-05-05 15:41 55.04218 79.44904 34938 ft 498 kts 83°
2026-05-05 15:42 55.04881 79.56938 34957 ft 498 kts 83°
2026-05-05 15:42 55.05533 79.68978 34954 ft 499 kts 83°
2026-05-05 15:43 55.06159 79.81030 34947 ft 499 kts 83°
2026-05-05 15:43 55.06793 79.93091 34949 ft 499 kts 83°
2026-05-05 15:44 55.07427 80.05157 34955 ft 500 kts 83°
2026-05-05 15:44 55.08036 80.17246 34967 ft 500 kts 83°
2026-05-05 15:45 55.08628 80.29263 34960 ft 500 kts 83°
2026-05-05 15:45 55.09216 80.41442 34967 ft 500 kts 83°
2026-05-05 15:46 55.09790 80.53465 34963 ft 500 kts 84°
2026-05-05 15:46 55.10349 80.65570 34986 ft 500 kts 83°
2026-05-05 15:47 55.10897 80.77699 34983 ft 501 kts 83°
2026-05-05 15:47 55.11506 80.89809 34977 ft 499 kts 78°
2026-05-05 15:48 55.13466 81.01299 34980 ft 490 kts 60°
2026-05-05 15:48 55.16787 81.11590 34972 ft 485 kts 54°
2026-05-05 15:49 55.20208 81.21785 34990 ft 486 kts 54°
2026-05-05 15:49 55.23605 81.32021 35017 ft 486 kts 54°
2026-05-05 15:50 55.26999 81.42287 35007 ft 487 kts 54°
2026-05-05 15:50 55.30390 81.52567 35004 ft 487 kts 54°
2026-05-05 15:51 55.33776 81.62876 35000 ft 487 kts 54°
2026-05-05 15:51 55.37156 81.73191 35010 ft 487 kts 54°
2026-05-05 15:52 55.40521 81.83513 35013 ft 486 kts 54°
2026-05-05 15:52 55.43847 81.93769 35007 ft 485 kts 54°
2026-05-05 15:53 55.47206 82.04163 35002 ft 485 kts 54°
2026-05-05 15:53 55.50510 82.14419 35003 ft 484 kts 54°
2026-05-05 15:54 55.53819 82.24763 35018 ft 483 kts 54°
2026-05-05 15:54 55.57102 82.35074 34987 ft 480 kts 54°
2026-05-05 15:55 55.60370 82.45343 34984 ft 479 kts 54°
2026-05-05 15:55 55.63636 82.55637 34984 ft 480 kts 54°
2026-05-05 15:56 55.66890 82.65965 34987 ft 480 kts 54°
2026-05-05 15:56 55.70131 82.76304 35003 ft 480 kts 54°
2026-05-05 15:57 55.73362 82.86664 35007 ft 479 kts 54°
2026-05-05 15:57 55.76582 82.97020 35006 ft 479 kts 54°
2026-05-05 15:58 55.79867 83.07284 34998 ft 473 kts 48°
2026-05-05 15:58 55.83975 83.16203 34989 ft 464 kts 40°
2026-05-05 15:59 55.88219 83.24891 35010 ft 465 kts 40°
2026-05-05 15:59 55.92437 83.33589 34988 ft 463 kts 40°
2026-05-05 16:00 55.96642 83.42310 34982 ft 463 kts 40°
2026-05-05 16:00 56.00846 83.51032 34978 ft 463 kts 40°
2026-05-05 16:01 56.05017 83.59713 34975 ft 463 kts 40°
2026-05-05 16:01 56.09210 83.68474 34981 ft 464 kts 40°
2026-05-05 16:02 56.13402 83.77256 34974 ft 464 kts 41°
2026-05-05 16:02 56.17590 83.86054 34994 ft 464 kts 40°
2026-05-05 16:03 56.21676 83.95077 34975 ft 473 kts 49°
2026-05-05 16:03 56.24520 84.05960 34967 ft 492 kts 68°
2026-05-05 16:04 56.26089 84.18021 34966 ft 496 kts 71°
2026-05-05 16:04 56.27579 84.30153 34983 ft 497 kts 71°
2026-05-05 16:05 56.29057 84.42297 34981 ft 496 kts 71°
2026-05-05 16:05 56.30530 84.54439 34981 ft 496 kts 71°
2026-05-05 16:06 56.32001 84.66589 34978 ft 497 kts 71°
2026-05-05 16:06 56.33454 84.78755 34976 ft 497 kts 72°
2026-05-05 16:07 56.34883 84.90935 34997 ft 497 kts 72°
2026-05-05 16:07 56.36304 85.03093 34988 ft 496 kts 72°
2026-05-05 16:08 56.37723 85.15266 34982 ft 496 kts 72°
2026-05-05 16:08 56.38380 85.27746 34978 ft 505 kts 86°
2026-05-05 16:09 56.38335 85.40427 35010 ft 505 kts 86°
2026-05-05 16:09 56.38299 85.53108 35002 ft 505 kts 86°
2026-05-05 16:10 56.38243 85.65787 34996 ft 505 kts 86°
2026-05-05 16:10 56.38166 85.78468 34993 ft 506 kts 86°
2026-05-05 16:11 56.38067 85.91165 34990 ft 506 kts 86°
2026-05-05 16:12 56.37888 86.16547 35001 ft 506 kts 86°
2026-05-05 16:13 56.37623 86.48177 34995 ft 506 kts 86°
2026-05-05 16:13 56.37490 86.60859 35020 ft 506 kts 86°
2026-05-05 16:14 56.37194 86.86204 34997 ft 505 kts 86°
2026-05-05 16:15 56.36838 87.11539 34993 ft 505 kts 86°
2026-05-05 16:16 56.36545 87.30505 35012 ft 504 kts 86°
2026-05-05 16:18 56.35745 87.74137 35025 ft 503 kts 86°
2026-05-05 16:19 56.35340 87.92992 35015 ft 500 kts 86°
2026-05-05 16:19 56.34922 88.11775 35012 ft 499 kts 86°
2026-05-05 16:20 56.34343 88.36734 35022 ft 498 kts 86°
2026-05-05 16:22 56.33525 88.67851 35018 ft 497 kts 87°
2026-05-05 16:23 56.32800 88.92719 35032 ft 496 kts 88°
2026-05-05 16:23 56.32299 89.11321 35027 ft 495 kts 88°
2026-05-05 16:24 56.32134 89.17519 34874 ft 495 kts 88°
2026-05-05 16:24 56.31966 89.23698 34633 ft 494 kts 87°
2026-05-05 16:24 56.31616 89.35999 34160 ft 496 kts 87°
2026-05-05 16:25 56.31431 89.42198 33909 ft 496 kts 87°
2026-05-05 16:25 56.31036 89.54592 33346 ft 495 kts 87°
2026-05-05 16:25 56.30838 89.60763 33068 ft 494 kts 87°
2026-05-05 16:26 56.30427 89.73086 32532 ft 492 kts 87°
2026-05-05 16:26 56.30019 89.85332 31492 ft 489 kts 87°
2026-05-05 16:27 56.29813 89.91423 30900 ft 487 kts 87°
2026-05-05 16:27 56.29604 89.97516 30289 ft 487 kts 87°
2026-05-05 16:27 56.29392 90.03596 29639 ft 487 kts 86°
2026-05-05 16:27 56.29169 90.09655 29049 ft 483 kts 86°
2026-05-05 16:28 56.28948 90.15619 28465 ft 480 kts 86°
2026-05-05 16:28 56.28733 90.21610 27878 ft 476 kts 87°
2026-05-05 16:28 56.28520 90.27536 27310 ft 473 kts 88°
2026-05-05 16:28 56.28305 90.33416 26756 ft 469 kts 88°
2026-05-05 16:29 56.28087 90.39242 26212 ft 465 kts 88°
2026-05-05 16:29 56.27861 90.45030 25684 ft 461 kts 89°
2026-05-05 16:29 56.27634 90.50754 25242 ft 455 kts 89°
2026-05-05 16:29 56.27405 90.56414 24748 ft 451 kts 90°
2026-05-05 16:30 56.27241 90.61956 24435 ft 440 kts 84°
2026-05-05 16:30 56.27354 90.67422 23962 ft 435 kts 83°
2026-05-05 16:30 56.27486 90.72831 23477 ft 431 kts 83°
2026-05-05 16:30 56.27620 90.78186 23018 ft 425 kts 83°
2026-05-05 16:31 56.27753 90.83481 22402 ft 425 kts 84°
2026-05-05 16:31 56.27874 90.88760 22001 ft 419 kts 84°
2026-05-05 16:31 56.27988 90.93999 21505 ft 417 kts 84°
2026-05-05 16:31 56.28100 90.99189 20998 ft 415 kts 84°
2026-05-05 16:32 56.28210 91.04324 20515 ft 411 kts 85°
2026-05-05 16:32 56.28313 91.09418 20102 ft 407 kts 85°
2026-05-05 16:32 56.28270 91.14514 19678 ft 407 kts 94°
2026-05-05 16:32 56.27867 91.19521 19327 ft 401 kts 97°
2026-05-05 16:33 56.27460 91.24465 18865 ft 399 kts 97°
2026-05-05 16:33 56.27075 91.29325 18424 ft 396 kts 97°
2026-05-05 16:33 56.26692 91.34215 17943 ft 394 kts 97°
2026-05-05 16:33 56.26299 91.39140 17486 ft 390 kts 97°
2026-05-05 16:34 56.25904 91.43972 17004 ft 388 kts 97°
2026-05-05 16:34 56.25513 91.48683 16497 ft 387 kts 98°
2026-05-05 16:34 56.25111 91.53423 16086 ft 383 kts 98°
2026-05-05 16:34 56.24708 91.58138 15685 ft 379 kts 98°
2026-05-05 16:35 56.24308 91.62820 15211 ft 378 kts 98°
2026-05-05 16:35 56.23895 91.67460 14792 ft 375 kts 102°
2026-05-05 16:35 56.23117 91.71915 14368 ft 372 kts 113°
2026-05-05 16:35 56.22150 91.76213 13943 ft 370 kts 113°
2026-05-05 16:36 56.21191 91.80494 13485 ft 368 kts 113°
2026-05-05 16:36 56.20250 91.84705 13069 ft 364 kts 113°
2026-05-05 16:36 56.19311 91.88905 12645 ft 361 kts 113°
2026-05-05 16:36 56.18382 91.93068 12228 ft 358 kts 113°
2026-05-05 16:37 56.17458 91.97193 11809 ft 354 kts 113°
2026-05-05 16:37 56.16538 92.01278 11387 ft 351 kts 113°
2026-05-05 16:37 56.15625 92.05323 10947 ft 349 kts 114°
2026-05-05 16:37 56.14713 92.09337 10537 ft 346 kts 114°
2026-05-05 16:38 56.13808 92.13306 10222 ft 340 kts 114°
2026-05-05 16:38 56.12933 92.17133 10108 ft 328 kts 114°
2026-05-05 16:38 56.12366 92.19617 10018 ft 321 kts 114°
2026-05-05 16:38 56.11804 92.22089 9925 ft 314 kts 114°